Regional Weather Roundup
Issued by NWS

Home | Current Version | Previous Version | Text Only | Print | Product List | Glossary Off
Versions: 1 2 3 4 5 6 7 8 9 10 11 12 13 14 15 16 17 18 19 20 21 22 23 24 25 26 27 28 29 30 31 32 33 34 35 36 37 38 39 40 41 42 43 44 45 46 47 48 49 50

000
ASUS45 KABQ 290401
RWRNM
NEW MEXICO REGIONAL WEATHER ROUNDUP
NATIONAL WEATHER SERVICE ALBUQUERQUE NM
1000 PM MDT TUE MAR 28 2017

NOTE: "FAIR" MEANS FEW OR NO CLOUDS BELOW 12,000 FEET AGL WITH NO
       SIGNIFICANT WEATHER OR OBSTRUCTIONS TO VISION.

      THIS PRODUCT IS RELEASED AS TWO VERSIONS.  ONE VERSION NEAR
      THE TOP OF THE HOUR CONTAINING PRELIMINARY DATA FROM ALBUQUERQUE
      AND OTHER STATIONS.  A FINAL VERSION WITH ADDITIONAL DATA IS
      ISSUED ABOUT 10 MINUTES AFTER THE HOUR.

NMZ501-503-504-510>518-290500-
NORTHWEST PLATEAU/NORTHCENTRAL MOUNTAINS

CITY           SKY/WX    TMP DP  RH WIND       PRES   REMARKS
FARMINGTON     FAIR      46  32  58 W12G21    29.82R
LOS ALAMOS     FAIR      36  36 100 E9        29.83R WCI  29
SANTA FE       FAIR      36  35  96 NW5       29.80R WCI  32
TAOS             N/A     36  28  75 NW5       29.82F WCI  32
ANGEL FIRE     CLOUDY    33  31  94 CALM      29.85S

$$
NMZ402-403-502-505>509-290500-
WESTCENTRAL MOUNTAINS/SOUTHWEST MOUNTAINS

CITY           SKY/WX    TMP DP  RH WIND       PRES   REMARKS
GALLUP         CLOUDY    43  32  65 NW20      29.92R
GRANTS         LGT RAIN  40  36  83 NW21      29.87F WCI  31
SILVER CITY    FAIR      43  35  73 NW23G30   29.90R

$$
NMZ407-409-411-412-290500-
SOUTHERN DESERTS

CITY           SKY/WX    TMP DP  RH WIND       PRES   REMARKS
DEMING         FAIR      51  35  54 NW17      29.88R
LAS CRUCES     FAIR      52  28  40 W17G23    29.84S
HOLLOMAN AFB   MOCLDY    51  36  56 SE5       29.84S
ALAMOGORDO     FAIR      48  37  66 NE6       29.82F
T OR C         FAIR      47  33  58 NW8       29.83R

$$
NMZ519>523-290500-
CENTRAL VALLEYS/CENTRAL HIGHLANDS

CITY           SKY/WX    TMP DP  RH WIND       PRES   REMARKS
ALBUQUERQUE    MOCLDY    45  36  70 N6        29.82R
DOUBLE EAGLE   MOCLDY    39  36  87 W9        29.81F WCI  33
MORIARTY ARPT  FAIR      36  35  94 NW8       29.79F WCI  30
CLINES CORNERS NOT AVBL
BELEN          CLOUDY    43  38  83 NW8       29.82R
SOCORRO        MOCLDY    47  31  54 CALM      29.81R

$$
NMZ524>526-539-540-290500-
SOUTHCENTRAL MOUNTAINS

CITY           SKY/WX    TMP DP  RH WIND       PRES   REMARKS
RUIDOSO        NOT AVBL

$$
NMZ527>531-290500-
NORTHEAST HIGHLANDS/NORTHEAST PLAINS

CITY           SKY/WX    TMP DP  RH WIND       PRES   REMARKS
LAS VEGAS      FAIR      32  30  92 E9        29.79S WCI  24
RATON          FAIR      38  34  85 N9        29.83R WCI  31
CLAYTON        CLOUDY    41  41 100 NE18G24   29.84R FOG

$$
NMZ532>537-290500-
EASTCENTRAL PLAINS

CITY           SKY/WX    TMP DP  RH WIND       PRES   REMARKS
TUCUMCARI      CLOUDY    48  45  89 E14       29.76R
CANNON AFB     NOT AVBL
CLOVIS AIRPORT FAIR      48  43  81 NE21G26   29.73F

$$
NMZ028-029-538-290500-
SOUTHEAST PLAINS

CITY           SKY/WX    TMP DP  RH WIND       PRES   REMARKS
ROSWELL        CLOUDY    57  35  43 NW20        N/A
ARTESIA        FAIR      55  36  47 W35G47    29.68R
CARLSBAD       FAIR      54  36  50 W25G39    29.69F
HOBBS          FAIR      54  34  47 SW13G20   29.73R


$$



USA.gov is the U.S. government's official web portal to all federal, state and local government web resources and services.